Lewis Run, PA

5:52 PM EST on January 19, 2017 (GMT -0500)
Bradford Regional

Weather History for KBFD - June, 2013

Change the Weather History Date:

Wednesday, June 12, 2013

  Actual Average Record
Temperature  
Mean Temperature 66 °F 61 °F  
Max Temperature 75 °F 73 °F 84 °F (1967)
Min Temperature 57 °F 49 °F 30 °F (1980)
Degree Days  
Heating Degree Days 0 2  
Month to date heating degree days 37  
Since 1 June heating degree days 37  
Since 1 July heating degree days 7665  
Cooling Degree Days 1 1  
Month to date cooling degree days 12  
Year to date cooling degree days 22  
Since 1 June cooling degree days 12  
Growing Degree Days 16 (Base 50)    
Moisture  
Dew Point 56 °F    
Average Humidity 81    
Maximum Humidity 93    
Minimum Humidity 43    
Precipitation  
Precipitation 0.18 in 0.17 in 1.66 in (1959)
Month to date precipitation 1.98  
Year to date precipitation 18.72  
Sea Level Pressure  
Sea Level Pressure 29.89 in    
Wind  
Wind Speed 5 mph (NW)    
Max Wind Speed 9 mph    
Max Gust Speed -    
Visibility 7 miles    
Events Rain    
T = Trace of Precipitation, MM = Missing Value Source: NWS Daily Summary

Daily Weather History Graph

Daily Weather History Graph

Search for Another Location

Airport or City:

Trip Planner

Search our weather history database for the weather conditions in past years. The results will help you decide how hot, cold, wet, or windy it might be!

Date:

Astronomy

Jun. 12, 2013 Rise Set
Actual Time 5:39 AM EDT 8:50 PM EDT
Civil Twilight 5:05 AM EDT 9:24 PM EDT
Nautical Twilight 4:21 AM EDT 10:08 PM EDT
Astronomical Twilight 3:28 AM EDT 11:00 PM EDT
Moon 9:19 AM EDT (6/12) 11:21 PM EDT (6/12)
Length of Visible Light 16h 19m
Length of Day
15h 10m
Waxing Crescent, 14% of the Moon is Illuminated
Jun 12
Waxing Crescent
Jun 16
First Quarter
Jun 23
Full
Jun 30
Last Quarter
Jul 8
New

Hourly Weather History & Observations

Time (EDT) Temp. Dew Point Humidity Pressure Visibility Wind Dir Wind Speed Gust Speed Precip Events Conditions
12:12 AM 61.0 °F 57.0 °F 87% 29.90 in 7.0 mi West 8.1 mph - N/A   Scattered Clouds
12:37 AM 59.0 °F 55.9 °F 90% 29.90 in 5.0 mi NW 8.1 mph - N/A   Scattered Clouds
12:48 AM 60.8 °F 57.2 °F 88% 29.90 in 5.0 mi NW 6.9 mph - N/A   Mostly Cloudy
12:53 AM 59.0 °F 57.0 °F 93% 29.88 in 5.0 mi NW 6.9 mph - N/A   Mostly Cloudy
1:53 AM 60.1 °F 57.0 °F 90% 29.88 in 9.0 mi WNW 6.9 mph - N/A   Overcast
2:46 AM 60.1 °F 57.0 °F 90% 29.90 in 9.0 mi NW 6.9 mph - N/A   Overcast
2:53 AM 60.1 °F 57.0 °F 90% 29.87 in 9.0 mi NW 4.6 mph - N/A   Overcast
3:53 AM 59.0 °F 57.0 °F 93% 29.87 in 4.0 mi West 4.6 mph - 0.11 in Rain Light Rain
4:53 AM 59.0 °F 55.9 °F 90% 29.86 in 6.0 mi Calm Calm - 0.03 in   Overcast
5:08 AM 57.9 °F 55.9 °F 93% 29.89 in 5.0 mi Calm Calm - N/A   Overcast
5:41 AM 57.9 °F 55.9 °F 93% 29.90 in 4.0 mi Calm Calm - N/A   Overcast
5:53 AM 57.9 °F 55.9 °F 93% 29.88 in 4.0 mi SW 3.5 mph - N/A   Overcast
6:07 AM 57.9 °F 55.9 °F 93% 29.91 in 4.0 mi Calm Calm - N/A   Overcast
6:16 AM 57.9 °F 55.9 °F 93% 29.91 in 3.0 mi Calm Calm - N/A   Overcast
6:32 AM 57.9 °F 55.9 °F 93% 29.92 in 2.0 mi Calm Calm - N/A   Mostly Cloudy
6:45 AM 59.0 °F 55.9 °F 90% 29.92 in 4.0 mi Calm Calm - N/A   Overcast
6:53 AM 59.0 °F 55.9 °F 90% 29.90 in 3.0 mi Calm Calm - N/A   Overcast
7:16 AM 59.0 °F 57.0 °F 93% 29.93 in 4.0 mi North 3.5 mph - N/A   Overcast
7:44 AM 60.1 °F 55.9 °F 86% 29.94 in 7.0 mi North 3.5 mph - N/A   Mostly Cloudy
7:53 AM 61.0 °F 55.9 °F 83% 29.92 in 10.0 mi NNW 4.6 mph - N/A   Scattered Clouds
8:53 AM 63.0 °F 54.0 °F 72% 29.93 in 10.0 mi NNE 4.6 mph - N/A   Clear
9:53 AM 64.9 °F 54.0 °F 68% 29.91 in 10.0 mi NNE 5.8 mph - N/A   Partly Cloudy
10:53 AM 66.9 °F 52.0 °F 59% 29.92 in 10.0 mi North 5.8 mph - N/A   Clear
11:53 AM 68.0 °F 53.1 °F 59% 29.92 in 10.0 mi Calm Calm - N/A   Partly Cloudy
12:53 PM 71.1 °F 55.0 °F 57% 29.91 in 10.0 mi Variable 3.5 mph - N/A   Scattered Clouds
1:53 PM 73.9 °F 54.0 °F 50% 29.89 in 10.0 mi NW 9.2 mph - N/A   Partly Cloudy
2:53 PM 73.9 °F 54.0 °F 50% 29.88 in 10.0 mi WNW 8.1 mph - N/A   Clear
3:53 PM 75.0 °F 54.0 °F 48% 29.86 in 10.0 mi NNW 4.6 mph - N/A   Clear
4:53 PM 75.9 °F 52.0 °F 43% 29.84 in 10.0 mi Variable 5.8 mph - N/A   Clear
5:53 PM 66.9 °F 57.9 °F 73% 29.89 in 3.0 mi NW 8.1 mph - 0.03 in Rain Rain
6:53 PM 66.9 °F 60.1 °F 79% 29.87 in 10.0 mi Calm Calm - 0.01 in Rain Light Rain
7:53 PM 64.9 °F 61.0 °F 87% 29.87 in 10.0 mi Calm Calm - 0.00 in   Mostly Cloudy
8:53 PM 64.0 °F 61.0 °F 90% 29.84 in 4.0 mi SSE 3.5 mph - N/A   Scattered Clouds
9:53 PM 63.0 °F 61.0 °F 93% 29.86 in 7.0 mi Calm Calm - N/A   Mostly Cloudy
10:53 PM 62.1 °F 60.1 °F 93% 29.83 in 5.0 mi SE 3.5 mph - N/A   Mostly Cloudy
11:53 PM 62.1 °F 59.0 °F 90% 29.80 in 9.0 mi Calm Calm - N/A   Mostly Cloudy